2023/10/22 00:00:00,24.3, 6.6
2023/10/22 00:10:00,24.3, 6.7
2023/10/22 00:20:00,24.4, 7.1
2023/10/22 00:30:00,24.4, 7.1
2023/10/22 00:40:00,24.4, 7.0
2023/10/22 00:50:00,24.5, 7.4
2023/10/22 01:00:00,24.5, 7.4
2023/10/22 01:10:00,24.5, 7.1
2023/10/22 01:20:00,24.3, 6.8
2023/10/22 01:30:00,24.3, 7.4
2023/10/22 01:40:00,24.2, 7.0
2023/10/22 01:50:00,24.3, 6.8
2023/10/22 02:00:00,24.4, 7.1
2023/10/22 02:10:00,24.5, 7.0
2023/10/22 02:20:00,24.5, 6.9
2023/10/22 02:30:00,24.6, 7.0
2023/10/22 02:40:00,24.5, 7.0
2023/10/22 02:50:00,24.6, 6.9
2023/10/22 03:00:00,24.6, 6.8
2023/10/22 03:10:00,24.6, 7.0
2023/10/22 03:20:00,24.5, 6.7
2023/10/22 03:30:00,24.4, 6.6
2023/10/22 03:40:00,24.4, 6.3
2023/10/22 03:50:00,24.4, 7.0
2023/10/22 04:00:00,24.4, 6.0
2023/10/22 04:10:00,24.4, 6.1
2023/10/22 04:20:00,24.3, 5.9
2023/10/22 04:30:00,24.3, 5.9
2023/10/22 04:40:00,24.3, 6.1
2023/10/22 04:50:00,24.4, 6.0
2023/10/22 05:00:00,24.4, 6.1
2023/10/22 05:10:00,24.4, 6.0
2023/10/22 05:20:00,24.4, 5.8
2023/10/22 05:30:00,24.4, 5.8
2023/10/22 05:40:00,24.4, 5.5
2023/10/22 05:50:00,24.4, 5.2
2023/10/22 06:00:00,24.4, 5.3
2023/10/22 06:10:00,24.4, 5.2
2023/10/22 06:20:00,24.4, 5.3
2023/10/22 06:30:00,24.3, 5.5
2023/10/22 06:40:00,24.4, 5.4
2023/10/22 06:50:00,24.4, 5.7
2023/10/22 07:00:00,24.4, 5.8
2023/10/22 07:10:00,24.4, 6.0
2023/10/22 07:20:00,24.4, 6.0
2023/10/22 07:30:00,24.5, 6.4
2023/10/22 07:40:00,24.4, 6.9
2023/10/22 07:50:00,24.4, 7.4
2023/10/22 08:00:00,24.3, 7.1
2023/10/22 08:10:00,24.4, 7.0
2023/10/22 08:20:00,24.4, 7.2
2023/10/22 08:30:00,24.4, 7.3
2023/10/22 08:40:00,24.5, 7.7
2023/10/22 08:50:00,24.5, 8.0
2023/10/22 09:00:00,24.5, 8.4
2023/10/22 09:10:00,24.9,13.0
2023/10/22 09:20:00,25.6,14.5
2023/10/22 09:30:00,26.2,12.0
2023/10/22 09:40:00,25.2,11.3
2023/10/22 09:50:00,24.9,11.9
2023/10/22 10:00:00,24.8,11.8
2023/10/22 10:10:00,24.7,12.6
2023/10/22 10:20:00,24.7,13.0
2023/10/22 10:30:00,24.7,13.7
2023/10/22 10:40:00,24.7,13.6
2023/10/22 10:50:00,25.0,20.2
2023/10/22 11:00:00,26.5,19.7
2023/10/22 11:10:00,24.8,19.6
2023/10/22 11:20:00,24.7,19.7
2023/10/22 11:30:00,25.1,17.5
2023/10/22 11:40:00,24.5,17.1
2023/10/22 11:50:00,24.4,17.5
2023/10/22 12:00:00,24.1,18.0
2023/10/22 12:10:00,24.1,17.3
2023/10/22 12:20:00,24.3,18.3
2023/10/22 12:30:00,23.6,18.4
2023/10/22 12:40:00,24.0,17.8
2023/10/22 12:50:00,24.0,19.2
2023/10/22 13:00:00,24.0,20.3
2023/10/22 13:10:00,24.5,20.0
2023/10/22 13:20:00,24.7,20.9
2023/10/22 13:30:00,24.8,19.1
2023/10/22 13:40:00,24.7,17.4
2023/10/22 13:50:00,24.7,16.9
2023/10/22 14:00:00,24.7,16.5
2023/10/22 14:10:00,24.7,17.1
2023/10/22 14:20:00,24.9,16.6
2023/10/22 14:30:00,25.0,16.7
2023/10/22 14:40:00,24.8,15.8
2023/10/22 14:50:00,24.9,15.2
2023/10/22 15:00:00,24.7,15.1
2023/10/22 15:10:00,24.7,14.7
2023/10/22 15:20:00,24.8,15.0
2023/10/22 15:30:00,24.7,14.1
2023/10/22 15:40:00,24.7,13.5
2023/10/22 15:50:00,24.9,13.0
2023/10/22 16:00:00,25.1,12.8
2023/10/22 16:10:00,25.0,12.9
2023/10/22 16:20:00,25.1,13.0
2023/10/22 16:30:00,25.1,12.7
2023/10/22 16:40:00,25.1,12.6
2023/10/22 16:50:00,25.0,12.2
2023/10/22 17:00:00,25.0,12.0
2023/10/22 17:10:00,25.0,11.5
2023/10/22 17:20:00,24.9,11.3
2023/10/22 17:30:00,24.8,11.2
2023/10/22 17:40:00,25.2,11.1
2023/10/22 17:50:00,24.9,10.9
2023/10/22 18:00:00,26.7,10.3
2023/10/22 18:10:00,25.6,10.4
2023/10/22 18:20:00,25.4,10.2
2023/10/22 18:30:00,25.2, 9.9
2023/10/22 18:40:00,25.0, 9.9
2023/10/22 18:50:00,24.7, 9.8
2023/10/22 19:00:00,24.7, 9.6
2023/10/22 19:10:00,24.6, 9.6
2023/10/22 19:20:00,24.7, 9.6
2023/10/22 19:30:00,24.8, 9.6
2023/10/22 19:40:00,24.7, 9.6
2023/10/22 19:50:00,24.7, 9.4
2023/10/22 20:00:00,24.6, 9.2
2023/10/22 20:10:00,24.7, 9.2
2023/10/22 20:20:00,24.6, 9.2
2023/10/22 20:30:00,24.6, 9.1
2023/10/22 20:40:00,24.6, 9.2
2023/10/22 20:50:00,24.5, 9.1
2023/10/22 21:00:00,24.6, 8.9
2023/10/22 21:10:00,24.6, 8.7
2023/10/22 21:20:00,24.5, 8.8
2023/10/22 21:30:00,24.4, 8.5
2023/10/22 21:40:00,24.5, 8.7
2023/10/22 21:50:00,24.5, 8.5
2023/10/22 22:00:00,24.4, 8.3
2023/10/22 22:10:00,24.4, 8.3
2023/10/22 22:20:00,24.5, 8.4
2023/10/22 22:30:00,24.5, 8.4
2023/10/22 22:40:00,24.5, 8.1
2023/10/22 22:50:00,24.4, 8.5
2023/10/22 23:00:00,24.5, 8.6
2023/10/22 23:10:00,24.4, 8.6
2023/10/22 23:20:00,24.4, 8.5
2023/10/22 23:30:00,24.5, 8.6
2023/10/22 23:40:00,24.5, 8.5
2023/10/22 23:50:00,24.5, 9.3
